Wind_Speed
41 41 41 43 42 46 48 50 49 49 51 55 53 57 49 48 54 49 49 51 53 50 64 71 68 75 85 89 92 103 108 106 101 96 90 85 79 76 70 71 65 65 65
44 44 44 46 48 52 52 55 56 59 60 64 67 69 71 70 74 65 62 59 59 60 61 75 79 78 77 87 94 97 105 111 110 104 98 92 86 80 78 70 72 68 68
48 48 49 51 52 56 59 60 61 63 65 70 72 74 77 79 76 77 75 76 71 74 71 72 82 90 84 86 96 99 102 105 112 113 107 100 94 87 81 79 74 70 68
49 51 54 56 58 62 63 65 67 69 69 75 78 80 81 81 80 82 86 79 70 78 72 72 84 90 90 92 95 100 104 108 108 114 115 110 103 95 88 85 81 76 73
54 58 60 60 65 66 68 71 74 78 78 81 84 88 90 89 89 89 87 84 77 69 76 76 82 94 97 103 97 101 105 103 108 110 116 118 113 104 97 91 86 81 77
60 62 63 65 68 72 73 76 79 82 84 85 89 95 94 93 91 93 88 82 72 69 70 74 83 90 98 99 109 103 105 111 111 109 113 119 120 112 106 97 93 87 84
62 64 67 71 73 74 78 81 82 86 92 98 99 100 100 100 97 95 94 86 74 69 72 71 71 88 88 95 107 110 104 110 115 115 112 116 119 121 115 109 100 95 89
66 71 73 75 77 79 83 86 90 93 97 102 104 103 103 101 98 103 97 85 78 72 68 70 64 72 72 77 93 109 110 113 118 119 120 115 117 121 123 117 108 101 95
70 70 73 75 79 82 87 92 97 101 102 104 105 105 104 102 104 104 100 93 84 76 72 72 69 67 64 71 73 87 104 111 117 123 128 126 114 119 124 125 116 109 102
73 74 77 81 84 89 93 98 101 101 103 105 109 111 111 113 110 105 101 97 92 85 78 76 75 77 74 71 69 82 89 103 116 123 128 132 126 117 122 129 124 116 109
82 84 84 87 90 94 98 102 106 108 107 110 108 112 115 113 113 102 99 98 92 94 90 82 82 82 83 80 78 78 80 98 105 118 127 133 128 121 119 126 131 123 116
87 89 91 94 97 100 102 104 105 106 106 105 105 109 111 115 115 111 105 100 93 95 90 89 88 89 89 90 85 83 85 87 84 110 121 129 131 133 127 124 133 132 122
89 91 93 97 100 102 103 105 105 104 105 108 105 106 109 111 113 108 106 103 101 97 88 90 97 98 96 96 93 89 87 94 96 97 115 132 131 132 131 127 131 138 131
90 91 95 98 100 100 98 99 100 101 103 104 104 105 104 106 108 110 111 111 106 104 95 93 96 97 102 101 95 94 90 90 92 103 96 120 133 134 137 134 129 138 141
91 94 96 97 98 99 97 99 101 100 105 105 104 104 103 106 106 113 115 116 114 105 92 91 96 102 101 99 100 97 93 87 92 102 112 102 133 136 139 137 132 135 147
90 93 96 96 95 98 99 101 102 103 104 105 106 105 100 103 108 113 114 113 114 112 104 89 86 97 102 97 97 98 99 87 86 90 109 117 126 127 141 144 139 134 146
95 95 95 98 99 100 102 103 106 105 103 104 106 106 102 102 107 116 118 116 114 114 115 95 97 96 100 98 93 87 88 88 89 97 108 122 130 135 140 141 136 143 136
98 98 100 99 100 103 104 106 104 103 99 100 103 105 104 107 112 116 116 114 109 108 113 109 103 105 103 88 78 80 84 84 92 99 104 121 134 142 134 141 142 145 138
100 103 105 104 104 107 106 104 100 98 97 100 102 103 111 109 110 112 109 103 101 105 109 106 103 104 102 90 70 69 73 78 86 96 102 109 130 137 139 143 145 146 150
103 108 109 110 110 107 103 98 94 96 97 100 100 99 102 101 101 99 98 99 101 105 109 108 105 97 97 83 60 55 58 70 77 81 94 100 120 138 131 143 143 136 149
109 111 111 110 108 104 98 98 98 97 96 93 89 91 94 95 95 94 96 99 102 109 111 107 104 94 86 77 57 50 55 65 72 81 91 101 114 123 133 142 138 138 147
112 109 105 102 100 100 98 99 98 95 91 86 88 90 89 91 90 89 95 103 107 113 108 101 90 82 76 69 55 50 57 63 66 76 86 97 100 105 105 129 139 137 132
108 101 99 97 96 94 96 97 95 90 86 88 91 89 87 85 86 90 93 101 109 114 108 94 82 76 71 66 55 50 56 59 63 72 78 88 95 112 114 125 129 131 133
102 102 97 98 96 95 94 95 93 90 90 90 90 89 84 82 90 93 92 98 106 107 101 90 78 74 72 64 53 50 55 57 59 68 75 89 92 111 119 132 134 130 131
107 104 100 102 100 102 100 98 95 92 91 91 90 85 83 85 93 95 93 99 104 96 91 79 71 70 68 63 53 48 53 53 60 67 71 82 89 104 110 130 141 141 140
101 103 104 104 106 104 102 98 95 92 88 90 89 84 83 90 91 93 95 99 96 86 83 76 68 66 63 59 53 48 51 54 60 65 68 79 89 99 103 110 134 147 145
Wind_Direction
297 300 297 295 295 300 300 301 302 304 307 308 310 314 303 291 304 284 276 267 263 259 252 248 249 250 245 244 243 240 240 242 240 239 238 239 240 237 236 235 236 242 244
295 295 294 295 296 298 295 295 302 303 305 304 304 305 303 304 302 299 286 289 277 260 267 252 249 244 245 243 243 241 239 237 238 238 237 235 237 237 235 235 236 238 243
291 290 290 291 293 292 294 297 295 296 296 297 298 298 299 301 300 297 295 296 289 287 279 267 252 243 242 242 243 244 243 239 236 235 236 234 234 235 235 235 235 235 239
289 288 289 289 290 292 294 293 294 292 292 292 293 296 299 301 301 298 296 295 291 273 278 263 251 241 240 239 241 238 243 241 239 234 234 234 231 232 234 235 236 235 236
286 287 290 289 290 291 292 292 293 293 294 295 297 299 301 302 302 302 300 298 289 273 265 263 256 245 242 240 240 242 238 241 241 237 233 233 232 230 232 233 234 235 233
287 289 288 287 290 291 292 293 294 295 295 295 297 298 298 298 302 304 305 298 284 271 260 260 254 249 246 244 242 242 242 241 242 241 236 232 230 229 229 231 231 231 231
290 288 286 288 290 292 292 292 293 294 296 297 298 299 300 301 305 304 303 298 289 281 266 260 253 246 247 247 243 243 243 239 241 243 239 234 230 227 227 229 229 228 230
291 291 289 288 288 289 291 292 293 294 294 295 296 298 299 300 301 302 303 301 294 291 283 282 266 252 252 251 245 242 241 241 241 240 243 240 235 227 225 226 227 225 225
287 286 287 289 289 290 291 292 293 294 296 296 297 298 298 299 302 304 303 300 296 293 288 284 281 275 267 254 248 247 241 241 238 239 238 241 236 230 225 223 225 224 222
287 287 289 290 291 292 293 294 294 295 295 295 296 297 298 299 301 302 300 297 298 296 292 287 284 283 277 263 255 243 242 241 239 237 237 234 238 236 228 224 222 223 222
291 292 292 293 292 292 292 293 293 293 293 294 296 296 297 299 301 302 297 296 294 291 290 290 287 282 277 271 260 245 248 240 239 237 234 235 235 235 231 225 222 221 221
293 292 292 292 291 291 291 292 293 294 293 294 295 296 297 298 299 299 298 294 290 285 290 289 285 282 278 274 267 259 252 241 245 239 234 234 234 236 232 230 221 219 219
293 293 293 292 291 292 292 292 292 293 295 296 298 298 297 296 297 297 293 291 291 288 289 287 287 284 279 277 274 267 259 250 241 236 233 232 231 233 233 228 223 219 217
294 293 291 291 291 292 292 292 294 294 295 296 297 296 296 296 294 293 293 293 293 291 289 286 285 283 280 277 275 272 265 255 244 237 232 235 233 232 232 229 226 220 216
293 293 291 292 292 292 292 292 294 295 296 295 294 295 296 296 294 294 293 294 295 293 291 287 287 282 278 276 276 275 271 262 248 238 232 233 232 234 231 226 226 221 216
294 295 293 292 292 292 292 293 294 294 294 294 293 291 291 293 292 290 292 293 294 295 294 286 281 279 278 281 279 275 273 265 252 241 235 232 224 227 227 226 225 222 217
294 296 295 294 294 294 294 293 293 295 294 292 291 291 290 290 289 287 289 292 293 292 294 289 286 279 281 283 282 279 273 264 252 239 235 227 224 224 227 227 225 224 219
295 296 296 296 294 293 293 293 293 293 292 291 291 292 291 291 288 287 288 291 293 290 292 295 288 287 287 288 285 279 273 256 246 242 237 224 226 223 222 226 223 222 220
294 293 294 295 293 293 293 293 293 293 292 292 291 292 292 287 287 286 292 295 292 292 292 295 296 294 294 294 279 269 259 250 242 239 238 230 228 226 223 222 222 220 219
295 296 296 294 293 292 292 293 293 291 291 292 291 289 285 287 289 294 295 293 292 293 293 296 298 299 298 291 277 264 255 246 238 230 231 228 221 222 225 223 224 221 217
295 294 294 294 293 293 293 293 293 293 292 290 288 288 290 292 295 293 293 291 292 291 292 296 298 298 293 288 278 269 258 246 237 230 226 227 225 226 229 229 225 222 214
296 296 294 293 293 292 292 291 291 292 294 293 293 295 295 295 293 295 294 294 293 293 296 297 300 295 290 282 277 267 255 251 240 230 228 228 229 233 231 226 223 221 217
293 291 290 290 289 289 290 290 291 294 297 298 296 296 294 295 295 295 295 293 293 295 299 301 300 296 290 284 278 262 253 247 242 232 227 225 221 218 219 219 220 218 217
291 291 291 291 291 291 293 294 296 300 300 298 296 297 299 298 296 296 294 292 292 295 298 299 300 295 291 286 277 261 253 244 236 231 226 221 218 214 213 213 218 220 215
293 291 292 293 295 297 298 298 300 300 299 298 299 300 301 299 297 296 293 291 292 297 298 299 296 293 289 285 274 260 251 239 231 228 222 221 216 216 215 213 212 214 213
290 292 294 295 296 296 296 297 297 297 298 299 300 301 302 302 299 297 293 292 296 298 298 297 295 292 287 283 271 260 249 235 230 225 218 219 215 216 217 216 212 211 214
Height
10749 10747 10746 10744 10742 10742 10739 10737 10736 10737 10734 10733 10731 10731 10731 10730 10730 10728 10728 10728 10727 10728 10726 10725 10723 10721 10722 10723 10725 10729 10735 10744 10755 10766 10778 10787 10795 10803 10808 10813 10819 10825 10827
10739 10737 10735 10733 10732 10729 10725 10723 10722 10720 10720 10717 10716 10717 10713 10712 10711 10710 10706 10707 10705 10701 10702 10703 10699 10699 10700 10702 10703 10706 10712 10720 10729 10741 10754 10767 10778 10786 10794 10799 10805 10812 10816
10728 10724 10723 10721 10718 10715 10713 10710 10708 10706 10704 10701 10698 10698 10696 10692 10693 10690 10690 10681 10676 10678 10675 10674 10674 10674 10676 10677 10680 10686 10690 10697 10707 10716 10729 10743 10757 10769 10777 10784 10790 10799 10804
10714 10711 10709 10707 10704 10700 10700 10698 10695 10693 10691 10688 10684 10682 10680 10676 10670 10664 10660 10656 10655 10648 10644 10643 10644 10643 10647 10649 10654 10659 10667 10673 10681 10693 10704 10715 10730 10746 10757 10766 10774 10782 10789
10700 10698 10695 10692 10689 10688 10686 10682 10679 10675 10672 10669 10664 10659 10653 10651 10645 10640 10636 10630 10623 10623 10619 10618 10617 10621 10624 10629 10630 10632 10638 10644 10654 10666 10677 10689 10703 10720 10734 10746 10756 10765 10773
10688 10685 10682 10679 10676 10671 10668 10664 10659 10656 10653 10650 10646 10642 10636 10632 10627 10614 10606 10601 10599 10597 10594 10593 10595 10597 10600 10605 10608 10610 10614 10620 10624 10635 10649 10661 10676 10694 10708 10721 10734 10744 10755
10672 10670 10667 10663 10660 10655 10650 10645 10641 10638 10631 10626 10624 10620 10610 10603 10596 10589 10584 10578 10571 10570 10567 10564 10566 10569 10574 10577 10581 10584 10589 10593 10601 10607 10618 10633 10647 10665 10682 10696 10709 10722 10735
10658 10655 10651 10648 10644 10638 10633 10626 10620 10616 10609 10603 10597 10598 10592 10582 10576 10568 10557 10548 10545 10542 10541 10538 10538 10539 10543 10548 10550 10555 10556 10563 10571 10581 10591 10604 10621 10636 10653 10670 10686 10700 10712
10642 10638 10634 10630 10622 10617 10612 10605 10598 10590 10583 10572 10568 10565 10561 10559 10556 10542 10531 10525 10522 10520 10515 10512 10511 10512 10515 10519 10520 10525 10530 10531 10538 10548 10560 10572 10592 10607 10624 10641 10660 10677 10690
10623 10619 10615 10609 10604 10597 10589 10580 10574 10568 10562 10552 10542 10533 10528 10526 10525 10526 10515 10503 10495 10495 10491 10489 10487 10484 10484 10490 10491 10494 10501 10501 10508 10515 10526 10538 10559 10579 10594 10614 10632 10653 10668
10602 10598 10594 10587 10581 10576 10569 10561 10550 10543 10536 10531 10520 10510 10501 10494 10489 10490 10494 10487 10481 10468 10466 10465 10458 10455 10452 10455 10460 10464 10466 10474 10479 10484 10496 10506 10524 10546 10564 10581 10603 10624 10644
10581 10579 10573 10567 10560 10553 10546 10538 10527 10516 10509 10505 10496 10487 10475 10466 10454 10448 10451 10455 10454 10449 10444 10435 10434 10426 10422 10423 10426 10431 10435 10440 10447 10455 10463 10475 10489 10508 10532 10551 10570 10592 10615
10560 10555 10549 10543 10535 10528 10520 10512 10502 10492 10485 10475 10466 10460 10449 10435 10427 10421 10415 10417 10416 10418 10420 10418 10397 10389 10391 10387 10389 10393 10399 10404 10411 10422 10433 10438 10452 10470 10492 10517 10539 10560 10584
10536 10529 10522 10517 10510 10503 10496 10487 10477 10468 10460 10448 10439 10431 10421 10407 10400 10391 10382 10378 10382 10385 10391 10383 10373 10364 10348 10347 10353 10353 10356 10366 10376 10383 10391 10406 10418 10433 10453 10481 10506 10530 10551
10510 10504 10497 10491 10484 10478 10470 10463 10454 10444 10434 10426 10416 10405 10394 10383 10372 10360 10349 10333 10328 10342 10363 10357 10339 10318 10315 10318 10312 10309 10314 10322 10328 10340 10357 10366 10382 10397 10414 10442 10469 10494 10517
10486 10479 10471 10466 10459 10452 10446 10437 10429 10419 10410 10398 10389 10380 10370 10357 10347 10332 10324 10314 10301 10294 10306 10318 10313 10286 10279 10280 10277 10273 10275 10283 10296 10306 10323 10326 10340 10364 10380 10401 10433 10461 10484
10461 10453 10446 10439 10434 10425 10418 10410 10401 10392 10383 10372 10360 10352 10342 10333 10322 10306 10295 10284 10275 10262 10255 10280 10266 10259 10252 10245 10239 10238 10234 10235 10245 10253 10268 10280 10302 10317 10338 10367 10397 10429 10455
10435 10427 10421 10416 10409 10400 10392 10384 10374 10365 10355 10345 10333 10324 10312 10302 10289 10280 10271 10261 10249 10234 10222 10218 10226 10214 10211 10207 10207 10198 10192 10195 10202 10213 10223 10238 10249 10274 10298 10325 10357 10390 10423
10407 10401 10394 10387 10380 10372 10363 10357 10347 10337 10328 10318 10306 10296 10285 10273 10264 10254 10244 10234 10220 10207 10192 10184 10181 10171 10164 10165 10165 10159 10157 10160 10168 10178 10189 10206 10224 10239 10258 10284 10315 10345 10386
10380 10374 10367 10360 10353 10345 10336 10327 10320 10311 10302 10290 10280 10269 10256 10246 10236 10229 10217 10203 10190 10178 10162 10153 10147 10138 10125 10123 10127 10129 10128 10129 10135 10144 10155 10170 10183 10208 10227 10246 10278 10318 10351
10355 10346 10338 10329 10320 10312 10305 10298 10292 10284 10276 10266 10254 10241 10229 10218 10209 10198 10187 10174 10161 10146 10135 10130 10123 10111 10097 10089 10092 10094 10098 10102 10105 10112 10122 10134 10155 10179 10200 10212 10247 10283 10321
10322 10315 10308 10299 10291 10285 10279 10271 10265 10258 10250 10239 10226 10215 10204 10193 10182 10170 10158 10143 10125 10109 10106 10099 10096 10082 10071 10064 10065 10067 10071 10074 10079 10088 10099 10110 10126 10137 10162 10188 10222 10251 10289
10293 10288 10280 10274 10266 10262 10255 10245 10239 10234 10223 10209 10198 10189 10179 10166 10156 10148 10137 10118 10099 10080 10071 10067 10066 10053 10045 10036 10042 10044 10047 10051 10055 10063 10078 10091 10109 10130 10156 10171 10195 10223 10258
10262 10255 10251 10244 10237 10233 10225 10217 10211 10204 10194 10182 10173 10162 10151 10142 10128 10120 10114 10098 10077 10065 10056 10042 10034 10029 10019 10013 10016 10021 10025 10028 10033 10042 10055 10064 10081 10098 10125 10150 10170 10197 10234
10228 10224 10219 10210 10205 10198 10192 10185 10181 10176 10168 10155 10142 10133 10126 10117 10102 10090 10083 10067 10053 10045 10028 10020 10013 10005 9996 9992 9993 10000 10001 10011 10012 10022 10037 10047 10065 10076 10093 10118 10150 10177 10209
10203 10194 10187 10183 10176 10171 10166 10161 10157 10151 10144 10130 10116 10109 10098 10088 10075 10061 10047 10035 10031 10021 10005 9995 9988 9982 9977 9973 9974 9980 9984 9989 9994 10003 10015 10029 10047 10060 10080 10092 10115 10145 10176